EN

Hourly Weather Troick

Today, 16 April, Friday

Time Temperature Precipitation Wind Pressure Humidity
00:00 -13°C° 0 mm 1 mps 728 mmHg 96%
01:00 -14°C° 0 mm 1 mps 728 mmHg 97%
02:00 -15°C° 0 mm 1 mps 729 mmHg 97%
03:00 -16°C° 0 mm 1 mps 729 mmHg 98%
04:00 -15°C° 0 mm 1 mps 729 mmHg 98%
05:00 -14°C° 0 mm 1 mps 730 mmHg 98%
06:00 -14°C° 0 mm 1 mps 730 mmHg 97%
07:00 -11°C° 0 mm 1 mps 730 mmHg 94%
08:00 -8°C° 0 mm 1 mps 730 mmHg 91%
09:00 -4°C° 0 mm 1 mps 730 mmHg 88%
10:00 -3°C° 0 mm 1 mps 730 mmHg 88%
11:00 -2°C° 0 mm 1 mps 730 mmHg 88%
12:00 0°C° 0 mm 1 mps 730 mmHg 87%
13:00 0°C° 0 mm 1 mps 730 mmHg 87%
14:00 +1°C° 0 mm 1 mps 730 mmHg 87%
15:00 +1°C° 0 mm 1 mps 730 mmHg 86%
16:00 0°C° 0 mm 1 mps 730 mmHg 88%
17:00 -1°C° 0 mm 0 mps 730 mmHg 90%
18:00 -2°C° 0 mm 0 mps 729 mmHg 92%
19:00 -4°C° 0 mm 0 mps 730 mmHg 94%
20:00 -7°C° 0 mm 0 mps 730 mmHg 97%
21:00 -10°C° 0 mm 0 mps 730 mmHg 99%
22:00 -11°C° 0 mm 0 mps 730 mmHg 99%
23:00 -12°C° 0 mm 0 mps 730 mmHg 99%

Tomorrow, 17 April, Saturday

Time Temperature Precipitation Wind Pressure Humidity
00:00 -13°C° 0 mm 1 mps 730 mmHg 99%
01:00 -13°C° 0 mm 1 mps 730 mmHg 99%
02:00 -12°C° 0 mm 1 mps 730 mmHg 99%
03:00 -11°C° 0 mm 1 mps 729 mmHg 99%
04:00 -11°C° 0 mm 1 mps 729 mmHg 99%
05:00 -10°C° 0 mm 1 mps 729 mmHg 99%
06:00 -9°C° 0 mm 1 mps 729 mmHg 99%
07:00 -8°C° 0 mm 1 mps 729 mmHg 96%
08:00 -6°C° 0 mm 1 mps 729 mmHg 93%
09:00 -4°C° 0 mm 1 mps 729 mmHg 90%
10:00 -2°C° 0 mm 1 mps 729 mmHg 88%
11:00 -1°C° 0 mm 1 mps 729 mmHg 86%
12:00 0°C° 0 mm 1 mps 728 mmHg 85%
13:00 +1°C° 0 mm 1 mps 728 mmHg 84%
14:00 +2°C° 0 mm 1 mps 728 mmHg 84%
15:00 +2°C° 0 mm 1 mps 727 mmHg 84%
16:00 +2°C° 0 mm 1 mps 727 mmHg 85%
17:00 -1°C° 0 mm 2 mps 727 mmHg 86%
18:00 -1°C° 0 mm 2 mps 727 mmHg 87%
19:00 -3°C° 0 mm 2 mps 727 mmHg 89%
20:00 -5°C° 0 mm 2 mps 727 mmHg 90%
21:00 -8°C° 0 mm 2 mps 727 mmHg 91%
22:00 -8°C° 0 mm 2 mps 727 mmHg 90%
23:00 -8°C° 0 mm 2 mps 727 mmHg 89%

Day after tomorrow, 18 April, Sunday

Time Temperature Precipitation Wind Pressure Humidity
00:00 -9°C° 0 mm 2 mps 727 mmHg 88%
01:00 -9°C° 0 mm 2 mps 727 mmHg 88%
02:00 -9°C° 0 mm 2 mps 727 mmHg 87%
03:00 -10°C° 0 mm 3 mps 727 mmHg 86%
04:00 -10°C° 0 mm 3 mps 727 mmHg 85%
05:00 -10°C° 0 mm 3 mps 727 mmHg 84%
06:00 -9°C° 0 mm 3 mps 727 mmHg 83%
07:00 -7°C° 0 mm 3 mps 727 mmHg 80%
08:00 -4°C° 0 mm 3 mps 727 mmHg 77%
09:00 -1°C° 0 mm 3 mps 727 mmHg 73%
10:00 +1°C° 0 mm 3 mps 726 mmHg 76%
11:00 +2°C° 0 mm 3 mps 726 mmHg 78%
12:00 +3°C° 0 mm 3 mps 726 mmHg 81%
13:00 +3°C° 0 mm 3 mps 726 mmHg 82%
14:00 +4°C° 0 mm 3 mps 725 mmHg 83%
15:00 +4°C° 0 mm 3 mps 725 mmHg 84%
16:00 +3°C° 0 mm 3 mps 725 mmHg 86%
17:00 +3°C° 0 mm 3 mps 725 mmHg 88%
18:00 +2°C° 0 mm 3 mps 725 mmHg 91%
19:00 +1°C° 0 mm 3 mps 725 mmHg 88%
20:00 0°C° 0 mm 3 mps 725 mmHg 85%
21:00 -2°C° 0 mm 4 mps 725 mmHg 83%
22:00 -2°C° 0 mm 4 mps 724 mmHg 82%
23:00 -2°C° 0 mm 4 mps 724 mmHg 82%

19 April, Monday

Time Temperature Precipitation Wind Pressure Humidity
00:00 -2°C° 0 mm 4 mps 724 mmHg 82%
01:00 -2°C° 0 mm 4 mps 724 mmHg 83%
02:00 -2°C° 0 mm 4 mps 723 mmHg 85%
03:00 -1°C° 0 mm 3 mps 723 mmHg 86%
04:00 -2°C° 0 mm 3 mps 724 mmHg 89%
05:00 -4°C° 0 mm 3 mps 724 mmHg 92%
06:00 -5°C° 0 mm 3 mps 724 mmHg 95%
07:00 -4°C° 0.3 mm 3 mps 724 mmHg 94%
08:00 -4°C° 0.3 mm 3 mps 724 mmHg 94%
09:00 -4°C° 0.3 mm 3 mps 725 mmHg 94%
10:00 -4°C° 1.2 mm 4 mps 725 mmHg 92%
11:00 -5°C° 1.2 mm 5 mps 725 mmHg 91%
12:00 -4°C° 1.2 mm 5 mps 725 mmHg 89%
13:00 -4°C° 0.2 mm 6 mps 725 mmHg 85%
14:00 -3°C° 0.2 mm 7 mps 725 mmHg 81%
15:00 -3°C° 0.2 mm 7 mps 725 mmHg 76%
16:00 -4°C° 0 mm 7 mps 725 mmHg 75%
17:00 -6°C° 0 mm 7 mps 725 mmHg 74%
18:00 -6°C° 0 mm 7 mps 725 mmHg 73%
19:00 -7°C° 0 mm 8 mps 725 mmHg 72%
20:00 -8°C° 0 mm 8 mps 725 mmHg 72%
21:00 -10°C° 0 mm 9 mps 725 mmHg 71%
22:00 -10°C° 0 mm 8 mps 725 mmHg 69%
23:00 -10°C° 0 mm 8 mps 725 mmHg 68%

20 April, Tuesday

Time Temperature Precipitation Wind Pressure Humidity
00:00 -11°C° 0 mm 8 mps 725 mmHg 66%
01:00 -11°C° 0 mm 8 mps 726 mmHg 66%
02:00 -11°C° 0 mm 7 mps 726 mmHg 66%
03:00 -12°C° 0 mm 7 mps 727 mmHg 66%
04:00 -11°C° 0 mm 6 mps 727 mmHg 67%
05:00 -11°C° 0 mm 6 mps 727 mmHg 67%
06:00 -12°C° 0 mm 5 mps 728 mmHg 68%
07:00 -10°C° 0 mm 5 mps 728 mmHg 65%
08:00 -8°C° 0 mm 5 mps 728 mmHg 62%
09:00 -7°C° 0 mm 4 mps 729 mmHg 59%
10:00 -5°C° 0 mm 4 mps 729 mmHg 58%
11:00 -4°C° 0 mm 3 mps 729 mmHg 57%
12:00 -2°C° 0 mm 3 mps 729 mmHg 56%
13:00 -2°C° 0 mm 3 mps 729 mmHg 56%
14:00 -1°C° 0 mm 3 mps 729 mmHg 55%
15:00 -2°C° 0 mm 4 mps 729 mmHg 55%
16:00 -2°C° 0 mm 4 mps 729 mmHg 57%
17:00 -1°C° 0 mm 3 mps 729 mmHg 59%
18:00 -1°C° 0 mm 3 mps 729 mmHg 62%
19:00 -4°C° 0 mm 3 mps 729 mmHg 67%
20:00 -5°C° 0 mm 2 mps 729 mmHg 73%
21:00 -6°C° 0 mm 2 mps 729 mmHg 78%
22:00 -7°C° 0 mm 2 mps 729 mmHg 80%
23:00 -7°C° 0 mm 2 mps 730 mmHg 82%

21 April, Wednesday

Time Temperature Precipitation Wind Pressure Humidity
00:00 -7°C° 0 mm 2 mps 730 mmHg 84%
01:00 -8°C° 0 mm 2 mps 730 mmHg 86%
02:00 -8°C° 0 mm 2 mps 730 mmHg 88%
03:00 -9°C° 0 mm 2 mps 731 mmHg 89%
04:00 -8°C° 0 mm 1 mps 731 mmHg 90%
05:00 -9°C° 0 mm 1 mps 731 mmHg 90%
06:00 -9°C° 0 mm 1 mps 732 mmHg 91%
07:00 -7°C° 0 mm 1 mps 732 mmHg 83%
08:00 -4°C° 0 mm 1 mps 732 mmHg 75%
09:00 -2°C° 0 mm 1 mps 732 mmHg 67%
10:00 -2°C° 0 mm 2 mps 733 mmHg 63%
11:00 +1°C° 0 mm 2 mps 733 mmHg 60%
12:00 +2°C° 0 mm 2 mps 733 mmHg 56%
13:00 +3°C° 0 mm 2 mps 733 mmHg 54%
14:00 +4°C° 0 mm 2 mps 732 mmHg 53%
15:00 +6°C° 0 mm 1 mps 732 mmHg 51%
16:00 +5°C° 0 mm 1 mps 732 mmHg 56%
17:00 +5°C° 0 mm 1 mps 732 mmHg 60%
18:00 +4°C° 0 mm 1 mps 732 mmHg 65%
19:00 +2°C° 0 mm 1 mps 732 mmHg 70%
20:00 +1°C° 0 mm 1 mps 732 mmHg 76%
21:00 -1°C° 0 mm 1 mps 732 mmHg 81%
22:00 -2°C° 0 mm 1 mps 732 mmHg 82%
23:00 -4°C° 0 mm 2 mps 733 mmHg 83%
Show more

We Need Your Consent

Meteoprog and our Service Providers may store and access personal data such as cookies, device identifiers or other similar technologies on your device and process such data to personalise content and ads, as well as provide social media features and to analyse the traffic.

  • Store and/or access information on your device

    Cookies, device identifiers or other information can be stored or accessed on your device for the purposes indicated above.

  • Personalised ads and content, ad and content measurement, audience insights, and products development

    Ads and content can be personalised based on a profile. More data can be added to better personalise ads and content. Ad and content performance can be measured. Insights about the audience who saw the ads and content can be derived. Such data can be used to develop or improve user’s experience, systems and software.

By clicking ‘I Agree’ you will allow the use of indicated cookies, device identifiers, web beacons or other similar technologies. Your settings can be changed in the browser on your device.

For certain purposes, legitimate interests may be relied on, rather than consent. You can read more about this in our Privacy and Cookie Policy.